Content
SEND FEEDBACK

Daily
Averages
Monthly
Summary
Canada

QUEBEC CITY AIRPORT, QUEBEC


Home > North America > Canada > Quebec
Elevation: 244 feet     Latitude: 46 48N     Longitude: 71 23W

WEATHER
 
SELECT A DAY
Number of Records: 195,029;   Date Range: 6/30/96 - 9/30/14
 
SHARE

PRINT THIS DATA

[ ← Previous Day ]
WEATHER ALMANAC - FEBRUARY 14, 2013
[ Next Day → ]
[ °C ]   °F
Weather ElementAverageHighLow
Temperature25.8 °F34 °F (4:00 pm)12 °F (1:00 am)
Dewpoint17.4 °F24 °F (1:00 pm) (7:00 pm)
Humidity72.6 %93 % (1:00 am)54 % (4:00 pm)
Barometer28.06 in29.95 in (9:00 pm) (7:00 pm)
Wind Speed4.5 mph11.5 mph (1:00 pm)
Weather ElementAverage
Visibility12.7 mi
Wind DirectionS (180.6 °)

Weather ElementTotal
Precipitation---
Heating Degree Days42 (Base 65)
Averaged from 33 records on February 14, 2013
WEATHER CONDITIONS BREAKOUT
WIND DIRECTION BREAKOUT
WEATHER BY HOUR - FEBRUARY 14, 2013
[ °C ]   °F
Local TimeTemperatureDewpointHumidityBarometerVisibilityWind DirectionWind SpeedGust SpeedPrecipitationEventsConditions
1:00 AM12.0 °F11.0 °F93 %29.78 inWest (260°)2.3 mph
1:00 AM17.6 °F12.2 °F79 %29.78 in15.0 miNorth (350°)2.3 mphClear
2:00 AM15.8 °F12.2 °F86 %29.79 in15.0 miCalmScattered Clouds
3:00 AM15.8 °F10.4 °F79 %29.78 in15.0 miCalmMostly Cloudy
4:00 AM14.0 °F13.0 °F91 %29.79 inNorth (10°)2.3 mph
4:00 AM19.4 °F14.0 °F80 %29.79 in15.0 miCalmMostly Cloudy
5:00 AM17.6 °F14.0 °F86 %29.82 in15.0 miNW (310°)3.5 mphOvercast
6:00 AM19.4 °F14.0 °F80 %29.83 in12.0 miNorth (360°)2.3 mphSnowLight Snow
7:00 AM21.2 °F15.8 °F80 %29.85 in4.0 miNNE (20°)3.5 mphSnowLight Snow
7:00 AM20.0 °F19.0 °F92 %29.85 inNorth2.3 mph
7:23 AM21.2 °F0.0 °F2.5 miNNE (30°)4.6 mphSnowLight Snow
8:00 AM21.2 °F15.8 °F80 %29.87 in3.0 miNNE (20°)2.3 mphSnowLight Snow
9:00 AM23.0 °F17.6 °F80 %29.88 in3.0 miCalmSnowLight Snow
10:00 AM25.0 °F22.0 °F82 %29.88 inSW (220°)1.2 mph
10:00 AM24.8 °F19.4 °F80 %29.88 in6.0 miWest (280°)2.3 mphSnowLight Snow
10:41 AM26.6 °F0.0 °F8.0 miWSW (240°)3.5 mphScattered Clouds
11:00 AM28.4 °F21.2 °F74 %29.89 in8.0 miSW (230°)4.6 mphPartly Cloudy
12:00 PM30.2 °F21.2 °F69 %29.88 in15.0 miSouth (190°)9.2 mphPartly Cloudy
1:00 PM32.0 °F24.0 °F61 %29.86 inSW (220°)8.1 mph
1:00 PM32.0 °F23.0 °F69 %29.88 in15.0 miSW (220°)11.5 mphScattered Clouds
2:00 PM33.8 °F21.2 °F60 %29.88 in15.0 miSSW (210°)10.4 mphScattered Clouds
3:00 PM33.8 °F21.2 °F60 %29.88 in20.0 miSW (220°)11.5 mphMostly Cloudy
4:00 PM34.0 °F24.0 °F54 %29.89 inSW (230°)5.8 mph
4:00 PM33.8 °F21.2 °F60 %29.89 in20.0 miSW (230°)8.1 mphMostly Cloudy
5:00 PM33.8 °F21.2 °F60 %29.91 in20.0 miSW (220°)5.8 mphMostly Cloudy
6:00 PM32.0 °F21.2 °F64 %29.91 in15.0 miWSW (240°)6.9 mphMostly Cloudy
7:00 PM30.0 °F22.0 °F62 %29.93 inWNW (290°)3.5 mph
7:00 PM32.0 °F19.4 °F60 %29.93 in15.0 miWSW (250°)5.8 mphMostly Cloudy
8:00 PM30.2 °F19.4 °F64 %29.94 in15.0 miSSW (210°)5.8 mphMostly Cloudy
9:00 PM30.2 °F21.2 °F69 %29.95 in15.0 miSW (230°)5.8 mphMostly Cloudy
10:00 PM31.0 °F22.0 °F59 %29.95 inWSW (240°)4.6 mph
10:00 PM28.4 °F21.2 °F74 %29.95 in15.0 miWSW (250°)5.8 mphMostly Cloudy
11:00 PM30.2 °F19.4 °F64 %29.94 in15.0 miSouth (180°)2.3 mphMostly Cloudy
Hourly data recorded from CYQB, located miles away from Quebec City Airport, Quebec







STORIES FROM OUR PARTNERS